Jackson, KY

5:18 PM EDT on October 23, 2017 (GMT -0400)
Carroll

Weather History for KJKL - June, 2014

Change the Weather History Date:

Wednesday, June 4, 2014

  Actual Average Record
Temperature  
Mean Temperature 76 °F 69 °F  
Max Temperature 85 °F 79 °F 91 °F (2002)
Min Temperature 67 °F 60 °F 46 °F (1988)
Degree Days  
Heating Degree Days 0 1  
Month to date heating degree days 0 4  
Since 1 June heating degree days 0 4  
Since 1 July heating degree days 4509 4226  
Cooling Degree Days 11 5  
Month to date cooling degree days 40 20  
Year to date cooling degree days 231 156  
Since 1 June cooling degree days 40 20  
Growing Degree Days 24 (Base 50)    
Moisture  
Dew Point 67 °F    
Average Humidity 78    
Maximum Humidity 93    
Minimum Humidity 62    
Precipitation  
Precipitation 0.67 in 0.16 in 0.97 in (1993)
Month to date precipitation 0.79 0.67  
Year to date precipitation 21.65 21.18  
Snow  
Snow 0.00 in 0.00 in - ()
Month to date snowfall 0.0 0.0  
Since 1 June snowfall 0.0 0.0  
Since 1 July snowfall 38.9 23.5  
Snow Depth 0.00 in    
Sea Level Pressure  
Sea Level Pressure 29.85 in    
Wind  
Wind Speed 2 mph (WSW)    
Max Wind Speed 16 mph    
Max Gust Speed 24 mph    
Visibility 9 miles    
Events Rain , Thunderstorm    
T = Trace of Precipitation, MM = Missing Value Source: NWS Daily Summary

Daily Weather History Graph

Daily Weather History Graph

Search for Another Location

Airport or City:

Trip Planner

Search our weather history database for the weather conditions in past years. The results will help you decide how hot, cold, wet, or windy it might be!

Date:

Astronomy

Jun. 04, 2014 Rise Set
Actual Time 6:12 AM EDT 8:50 PM EDT
Civil Twilight 5:41 AM EDT 9:21 PM EDT
Nautical Twilight 5:03 AM EDT 10:00 PM EDT
Astronomical Twilight 4:20 AM EDT 10:43 PM EDT
Moon 12:25 PM EDT (6/4) 12:54 AM EDT (6/4)
Length of Visible Light 15h 39m
Length of Day
14h 38m
Waxing Crescent, 39% of the Moon is Illuminated
Jun 4
Waxing Crescent
Jun 5
First Quarter
Jun 13
Full
Jun 19
Last Quarter
Jun 27
New

Hourly Weather History & Observations

Time (EDT) Temp. Heat Index Dew Point Humidity Pressure Visibility Wind Dir Wind Speed Gust Speed Precip Events Conditions
12:53 AM 70.0 °F - 64.9 °F 84% 29.96 in 10.0 mi Calm Calm - N/A   Clear
1:53 AM 70.0 °F - 64.9 °F 84% 29.94 in 10.0 mi Calm Calm - N/A   Clear
2:53 AM 69.1 °F - 64.9 °F 87% 29.95 in 10.0 mi Calm Calm - N/A   Clear
3:53 AM 68.0 °F - 64.9 °F 90% 29.93 in 10.0 mi Calm Calm - N/A   Clear
4:53 AM 68.0 °F - 64.0 °F 87% 29.93 in 10.0 mi Calm Calm - N/A   Clear
5:53 AM 66.9 °F - 64.0 °F 90% 29.94 in 8.0 mi Calm Calm - N/A   Partly Cloudy
6:53 AM 66.9 °F - 64.0 °F 90% 29.95 in 7.0 mi Calm Calm - N/A   Overcast
7:11 AM 68.0 °F - 64.0 °F 87% 29.98 in 8.0 mi Calm Calm - N/A   Mostly Cloudy
7:53 AM 69.1 °F - 64.9 °F 87% 29.94 in 10.0 mi Calm Calm - N/A   Partly Cloudy
8:53 AM 71.1 °F - 64.9 °F 81% 29.94 in 10.0 mi Calm Calm - N/A   Mostly Cloudy
9:53 AM 73.0 °F - 66.9 °F 81% 29.94 in 10.0 mi Calm Calm - N/A   Mostly Cloudy
10:39 AM 77.0 °F - 68.0 °F 74% 29.97 in 10.0 mi Variable 3.5 mph - N/A   Mostly Cloudy
10:53 AM 78.8 °F - 69.8 °F 74% 29.97 in 10.0 mi Calm Calm - N/A   Overcast
11:48 AM 80.6 °F 83.9 °F 69.8 °F 70% 29.94 in 10.0 mi Variable 3.5 mph - N/A Thunderstorm Mostly Cloudy
11:53 AM 80.1 °F 82.9 °F 69.1 °F 69% 29.89 in 10.0 mi Variable 4.6 mph - N/A Thunderstorm Mostly Cloudy
12:05 PM 79.0 °F - 69.1 °F 72% 29.93 in 10.0 mi Calm Calm - N/A Thunderstorm Thunderstorm
12:36 PM 82.9 °F 85.8 °F 68.0 °F 60% 29.90 in 10.0 mi SSW 6.9 mph - N/A Thunderstorm Scattered Clouds
12:46 PM 81.0 °F 84.1 °F 69.1 °F 67% 29.90 in 10.0 mi Variable 3.5 mph - N/A   Scattered Clouds
12:53 PM 79.0 °F - 68.0 °F 69% 29.85 in 10.0 mi Variable 3.5 mph - 0.00 in Rain Light Rain
1:20 PM 82.0 °F 85.5 °F 69.1 °F 65% 29.88 in 10.0 mi North - - 0.00 in   Mostly Cloudy
1:53 PM 80.1 °F 82.9 °F 69.1 °F 69% 29.83 in 10.0 mi Variable 3.5 mph - 0.00 in   Mostly Cloudy
2:53 PM 81.0 °F 83.3 °F 66.9 °F 62% 29.80 in 10.0 mi North - - N/A   Scattered Clouds
3:53 PM 81.0 °F 84.1 °F 69.1 °F 67% 29.78 in 10.0 mi Variable 3.5 mph - N/A   Scattered Clouds
4:53 PM 81.0 °F 83.3 °F 66.9 °F 62% 29.75 in 10.0 mi North - - N/A   Scattered Clouds
5:11 PM 78.1 °F - 66.9 °F 68% 29.79 in 7.0 mi Variable 3.5 mph - 0.00 in Rain , Thunderstorm Light Rain
5:18 PM 75.9 °F - 66.9 °F 74% 29.80 in 2.5 mi Variable 3.5 mph - 0.00 in Rain , Thunderstorm Thunderstorms and Rain
5:25 PM 73.0 °F - 68.0 °F 84% 29.77 in 0.8 mi Variable 3.5 mph - 0.02 in Rain , Thunderstorm Heavy Thunderstorms and Rain
5:35 PM 69.1 °F - 66.0 °F 90% 29.81 in 0.8 mi NW 16.1 mph 24.2 mph 0.26 in Rain , Thunderstorm Heavy Thunderstorms and Rain
5:44 PM 69.1 °F - 64.9 °F 87% 29.79 in 1.8 mi Variable 5.8 mph 24.2 mph 0.37 in Rain , Thunderstorm Thunderstorms and Rain
5:47 PM 71.6 °F - 66.2 °F 83% 29.79 in 3.0 mi Variable 5.8 mph - 0.37 in Rain , Thunderstorm Light Thunderstorms and Rain
5:53 PM 73.0 °F - 68.0 °F 84% 29.75 in 10.0 mi Variable 5.8 mph - 0.37 in Rain , Thunderstorm Light Thunderstorms and Rain
6:03 PM 73.9 °F - 70.0 °F 87% 29.79 in 10.0 mi Calm Calm - 0.00 in Thunderstorm Scattered Clouds
6:29 PM 75.0 °F - 71.1 °F 87% 29.79 in 10.0 mi Calm Calm - 0.00 in   Clear
6:53 PM 75.9 °F - 71.1 °F 85% 29.75 in 10.0 mi Variable 3.5 mph - 0.00 in   Partly Cloudy
7:53 PM 73.9 °F - 69.1 °F 85% 29.75 in 10.0 mi Variable 3.5 mph - N/A   Partly Cloudy
8:23 PM 75.0 °F - 69.1 °F 82% 29.79 in 10.0 mi Calm Calm - N/A Thunderstorm Mostly Cloudy
8:40 PM 73.9 °F - 69.1 °F 85% 29.80 in 10.0 mi WSW 3.5 mph - N/A   Mostly Cloudy
8:48 PM 73.4 °F - 68.0 °F 83% 29.80 in 10.0 mi Variable 4.6 mph - N/A Thunderstorm Scattered Clouds
8:53 PM 73.0 °F - 68.0 °F 84% 29.76 in 10.0 mi Calm Calm - N/A Thunderstorm Mostly Cloudy
9:03 PM 73.0 °F - 68.0 °F 84% 29.80 in 10.0 mi Calm Calm - N/A   Mostly Cloudy
9:53 PM 71.1 °F - 66.9 °F 87% 29.75 in 10.0 mi Calm Calm - N/A   Scattered Clouds
10:43 PM 71.1 °F - 68.0 °F 90% 29.80 in 10.0 mi Variable 3.5 mph - 0.05 in Thunderstorm Overcast
10:53 PM 71.6 °F - 68.0 °F 88% 29.78 in 10.0 mi Variable 3.5 mph - N/A   Overcast
11:46 PM 72.0 °F - 68.0 °F 87% 29.79 in 10.0 mi WSW 4.6 mph - N/A Thunderstorm Mostly Cloudy
11:53 PM 72.0 °F - 68.0 °F 87% 29.74 in 10.0 mi Variable 3.5 mph - N/A Thunderstorm Mostly Cloudy